Regional Weather Roundup
Issued by NWS

Home | Current Version | Previous Version | Text Only | Print | Product List | Glossary On
Versions: 1 2 3 4 5 6 7 8 9 10 11 12 13 14 15 16 17 18 19 20 21 22 23 24 25 26 27 28 29 30 31 32 33 34 35 36 37 38 39 40 41 42 43 44 45 46 47 48 49 50
000
ASUS43 KMPX 191210
RWRMN
WEATHER ROUNDUP FOR MINNESOTA
NATIONAL WEATHER SERVICE TWIN CITIES/CHANHASSEN MN
700 AM CDT TUE SEP 19 2017


NOTE: "FAIR" INDICATES FEW OR NO CLOUDS BELOW 12,000 FEET WITH NO
SIGNIFICANT WEATHER AND/OR OBSTRUCTIONS TO VISIBILITY. N/A MEANS
CURRENT SKY AND/OR WEATHER CONDITIONS ARE NOT AVAILABLE.

MNZ060>063-068>070-191300-
   Twin Cities Metro

CITY           SKY/WX    TMP DP  RH WIND       PRES   REMARKS
TWIN CITIES    PTCLDY    60  58  92 SE7       29.92S
6HR MIN TEMP:  59; 6HR MAX TEMP:  60;

ST PAUL        MOCLDY    59  57  93 SE8       29.93S
CRYSTAL        CLOUDY    60  54  80 SE6       29.91R
BLAINE         CLOUDY    61  59  94 E7        29.92S
LAKEVILLE      CLOUDY    55  55 100 CALM      29.92R FOG
EDEN PRAIRIE   CLOUDY    60  57  89 E7        29.90S
6HR MIN TEMP:  59; 6HR MAX TEMP:  60;

SOUTH ST PAUL  PTCLDY    59  58  97 CALM      29.92S
LAKE ELMO      CLOUDY    59  57  94 E3        29.94S
$$
MNZ001>005-007-008-013>017-022>024-027-028-191300-
   Northwest Minnesota

CITY           SKY/WX    TMP DP  RH WIND       PRES   REMARKS
BEMIDJI        FOG       54  54 100 SE8       29.88R VSB 3/4
HALLOCK        CLOUDY    57  57 100 SE9       29.79F FOG
ROSEAU         CLOUDY    57  52  82 SE7       29.85R HAZE
WARROAD        CLOUDY    55  52  88 SE10      29.87R FOG
THIEF RVR FALL CLOUDY    56  54  93 E10       29.83F
CROOKSTON      CLOUDY    57  55  94 SE9       29.80F FOG
FOSSTON        CLOUDY    54  54 100 SE5       29.83F
DETROIT LAKES  FOG       55  55 100 SE10      29.83F VSB 1
MOORHEAD       CLOUDY    61  59  94 SE10      29.78F FOG
PARK RAPIDS    CLOUDY    56  55  97 SE7       29.87S FOG
MAHNOMEN       CLOUDY    57  56  94 SE8       29.82F
$$
MNZ006-009>011-018-025>026-191300-
   North Central Minnesota

CITY           SKY/WX    TMP DP  RH WIND       PRES   REMARKS
BAUDETTE       CLOUDY    53  53 100 SE8       29.88F
FLAG ISLAND    CLOUDY    55  54  94 SE12      29.86S
INTL FALLS     CLOUDY    54  51  90 SE6       29.92R
6HR MIN TEMP:  53; 6HR MAX TEMP:  55;

WASKISH        CLOUDY    54  54 100 SE6       29.88S FOG
BIG FORK       CLOUDY    55  54  94 SE6       29.90F
LONGVILLE      CLOUDY    54  54 100 SE3       29.89S FOG
GRAND RAPIDS   CLOUDY    54  53  97 SE5       29.93S FOG
CRANE LAKE     CLOUDY    54  52  94 CALM      29.96R
ORR            CLOUDY    54  52  94 SE3       29.91R FOG
COOK           CLOUDY    54  54 100 CALM      29.94S
WALKER         CLOUDY    55  54  97 SE5       29.88S
$$
MNZ012-019>021-037-191300-
   Northeast Minnesota

CITY           SKY/WX    TMP DP  RH WIND       PRES   REMARKS
DULUTH         CLOUDY    55  55 100 SE10      29.95R
6HR MIN TEMP:  53; 6HR MAX TEMP:  55; 6HR PCP:  0.02;

ELY            CLOUDY    55  54  94 CALM      29.96R
HIBBING        CLOUDY    53  53 100 SE5       29.94R
EVELETH        CLOUDY    55  54  95 SE3       29.95S
DULUTH HARBOR  CLOUDY    61  57  88 E3        29.96R
TWO HARBORS    CLOUDY    59  54  82 E7        29.95S
SILVER BAY     CLOUDY    57  55  94 CALM      29.96R FOG
GRAND MARAIS     N/A     58  56  93 NE3       30.00S
G MARAIS ARPRT CLOUDY    52  48  87 SE3       30.02S
$$
MNZ029>031-032-039>041-046>048-054>057-064-191300-
   West Central Minnesota

CITY           SKY/WX    TMP DP  RH WIND       PRES   REMARKS
FERGUS FALLS   CLOUDY    61  61 100 SE14      29.80F FOG
WHEATON        CLOUDY    63  61  94 SE12      29.80S FOG
MORRIS         FOG       63  63 100 SE13      29.81F VSB 1
ALEXANDRIA     FOG       58  58 100 SE10      29.86F VSB 1/2
ELBOW LAKE     CLOUDY    60  60 100 E13G18    29.82F FOG
WADENA         FOG       55  55 100 SE8       29.86S VSB 1/2
GLENWOOD       FOG       59  59 100 SE8       29.86F VSB 1/2
APPLETON       CLOUDY    64  63  94 SE9       29.81F FOG
BENSON         CLOUDY    64  63  94 S10G17    29.85S FOG
ORTONVILLE     CLOUDY    64  63  94 NE9       29.79F FOG
MADISON        CLOUDY    66  66 100 SE9       29.81S FOG
WILLMAR        FOG       63  63 100 SE6       29.88R VSB 1
$$
MNZ033>034-036-042>043-049>051-058-059-191300-
   Central Minnesota

CITY           SKY/WX    TMP DP  RH WIND       PRES   REMARKS
ST CLOUD       CLOUDY    57  57 100 E6        29.89S
6HR MIN TEMP:  55; 6HR MAX TEMP:  57;

PAYNESVILLE    FOG       59  60 100 SE6       29.89R VSB 1/2
AITKIN         CLOUDY    55  54  94 SE6       29.90R
PINE RIVER     CLOUDY    54  52  94 SE6       29.92S FOG
BRAINERD       CLOUDY    56  55  97 SE5       29.90S FOG
STAPLES        CLOUDY    55  55 100 SE6       29.87F FOG
LONG PRAIRIE   HVY RAIN  55  55 100 E5        29.88S VSB 1/2
LITTLE FALLS   FOG       55  54  94 SE3       29.89S VSB 3/4
LITCHFIELD     DRZL/FOG  61  61 100 SE8       29.89R VSB 1/4
BUFFALO        CLOUDY    59  56  92 E3        29.91R FOG
MAPLE LAKE     CLOUDY    60  59  97 SE3       29.91R FOG
HUTCHINSON     FOG       62  62 100 E7        29.90S VSB 1/4
$$
MNZ037-044-045-052-053-191300-
   East Central Minnesota

CITY           SKY/WX    TMP DP  RH WIND       PRES   REMARKS
PRINCETON      CLOUDY    59  57  94 SE7       29.91S
MORA           CLOUDY    55  54  94 E6        29.93S
CAMBRIDGE      CLOUDY    61  55  82 SE5       29.92S
RUSH CITY      CLOUDY    57  55  93 CALM      29.93S
MOOSE LAKE     CLOUDY    55  54  94 CALM      29.91F
HINCKLEY       CLOUDY    57  57 100 E5        29.93S
CLOQUET        CLOUDY    55  54  94 SE5       29.94S
MCGREGOR       CLOUDY    55  54  94 SE6       29.93R
$$
MNZ071>073-080-081-089-090-097-098-191300-
   Southwest Minnesota

CITY           SKY/WX    TMP DP  RH WIND       PRES   REMARKS
MONTEVIDEO     CLOUDY    64  64 100 S10       29.84R FOG
GRANITE FALLS  CLOUDY    66  65  95 E7        29.85S FOG
CANBY          CLOUDY    65  64  96 E6        29.82S FOG
MARSHALL       CLOUDY    65  64  97 SE9       29.83S FOG
REDWOOD FALLS  CLOUDY    64  62  93 SE12      29.85S FOG
OLIVIA         FOG       61  61 100 SE6       29.86R VSB 3/4
PIPESTONE      FOG       64  64 100 S8        29.82S VSB 1
WORTHINGTON    CLOUDY    64  64 100 SE6       29.85F FOG
JACKSON        FOG       63  63 100 SE8       29.87S VSB 1/2
TRACY          CLOUDY    65  65 100 SE7       29.84S FOG
SLAYTON        CLOUDY    64  63  95 SE6       29.85S FOG
$$
MNZ065>067-074>077-082>085-091>093-191300-
   South Central Minnesota

CITY           SKY/WX    TMP DP  RH WIND       PRES   REMARKS
MANKATO        FOG       62  62 100 SE9       29.90S VSB 1/4
NEW ULM        FOG       63  63 100 SE6       29.87S VSB 3/4
ST JAMES       CLOUDY    64  64 100 SE9       29.88S FOG
FAIRMONT       CLOUDY    64  64 100 SE9       29.89S FOG
GLENCOE        FOG       61  61 100 E6        29.89S VSB 1
FARIBAULT      CLOUDY    61  59  94 SE5       29.93R
OWATONNA       CLOUDY    61  59  94 SE8       29.92S
WASECA         CLOUDY    59  57  94 CALM      29.92S FOG
ALBERT LEA     CLOUDY    64  63  94 SE6       29.92S FOG
$$
MNZ078>079-086>088-094>096-191300-
   Southeast Minnesota

CITY           SKY/WX    TMP DP  RH WIND       PRES   REMARKS
ROCHESTER      MOCLDY    57  55  93 S7        29.95R
6HR MIN TEMP:  55; 6HR MAX TEMP:  57;

RED WING       CLOUDY    59  55  88 E5        29.93R
STANTON        CLOUDY    60  56  87 CALM      29.91S
DODGE CENTER   CLOUDY    57  55  94 S3        29.94R
WINONA         CLOUDY    59  57  94 SE6       29.96R
AUSTIN         CLOUDY    59  57  94 SE3       29.93S
PRESTON        CLOUDY    57  55  92 SE5       29.96R
$$
ABBREVIATIONS USED IN REMARKS
   TC - TEMPERATURES IN CELSIUS
  WCI - WIND CHILL INDEX
   HX - HEAT INDEX
  VSB - VISIBILITY
$$




USA.gov is the U.S. government's official web portal to all federal, state and local government web resources and services.